Date,TemperatureHighF,TemperatureAvgF,TemperatureLowF,DewpointHighF,DewpointAvgF,DewpointLowF,HumidityHigh,HumidityAvg,HumidityLow,PressureMaxIn,PressureMinIn,WindSpeedMaxMPH,WindSpeedAvgMPH,GustSpeedMaxMPH,PrecipitationSumIn
2014-1-1,13,12,10,11,9,7,90,88,86,0.00,40.00,9,7,0,0.00
2014-1-2,13,10,2,9,4,-5,87,76,58,0.00,40.00,13,10,0,0.00
2014-1-3,14,5,-10,4,-4,-14,83,66,45,0.00,40.00,17,9,0,0.00
2014-1-4,30,23,14,27,12,-100,95,67,53,0.00,40.00,18,11,0,0.00
2014-1-5,28,24,16,27,23,15,96,95,92,0.00,40.00,13,6,0,0.00
2014-1-6,16,-1,-13,14,-5,-18,92,84,79,0.00,40.00,18,14,0,0.00
2014-1-7,-1,-6,-11,-6,-11,-15,82,80,77,0.00,40.00,13,10,0,0.00
2014-1-8,16,5,-8,9,1,-12,90,81,70,0.00,40.00,7,4,0,0.00
2014-1-9,20,9,2,18,6,0,90,88,77,0.00,40.00,13,6,0,0.00
2014-1-10,40,31,21,38,29,18,96,95,91,0.00,40.00,16,10,0,0.01
2014-1-11,42,35,32,40,32,-100,96,91,83,0.00,40.00,12,10,0,0.00
2014-1-12,39,33,29,29,26,25,85,77,62,0.00,40.00,18,11,0,0.00
2014-1-13,44,40,36,34,31,28,83,68,60,0.00,40.00,13,9,0,0.00
2014-1-14,35,29,23,31,23,17,93,80,55,0.00,40.00,15,10,0,0.00
2014-1-15,23,20,14,20,17,9,93,86,75,0.00,40.00,15,9,0,0.00
2014-1-16,28,22,13,26,18,8,94,85,78,0.00,40.00,15,12,0,0.00
2014-1-17,25,19,12,22,14,7,89,81,76,0.00,40.00,12,8,0,0.00
2014-1-18,17,15,12,14,9,-100,90,81,71,0.00,40.00,9,6,0,0.00
2014-1-19,32,22,13,26,17,11,91,82,67,0.00,40.00,14,8,0,0.00
2014-1-20,36,27,14,29,20,8,87,76,64,0.00,40.00,13,8,0,0.00
2014-1-21,13,8,2,5,-4,-7,75,56,40,0.00,40.00,13,7,0,0.00
2014-1-22,11,8,5,8,1,-4,89,73,59,0.00,40.00,10,7,0,0.00
2014-1-23,18,10,6,13,6,-2,89,82,57,0.00,40.00,10,5,0,0.00
2014-1-24,18,7,-7,15,0,-12,89,75,52,0.00,40.00,15,11,0,0.00
2014-1-25,27,18,11,25,12,-100,95,82,66,0.00,40.00,19,14,0,0.00
2014-1-26,27,15,5,22,10,1,92,82,74,0.00,40.00,19,10,0,0.00
2014-1-27,20,6,-2,16,2,-5,89,84,76,0.00,40.00,24,13,0,0.00
2014-1-28,3,-4,-11,-4,-9,-15,84,76,63,0.00,40.00,11,8,0,0.00
2014-1-29,16,7,-2,4,-2,-6,84,68,45,0.00,40.00,15,10,0,0.00
2014-1-30,29,21,15,26,11,3,91,64,52,0.00,40.00,18,13,0,0.00
2014-1-31,31,25,21,26,19,15,85,78,69,0.00,40.00,11,6,0,0.00
2014-2-1,29,25,22,28,22,-100,95,92,89,0.00,40.00,8,4,0,0.00
2014-2-2,22,20,12,21,17,9,94,89,78,0.00,40.00,10,5,0,0.00
2014-2-3,24,11,-1,11,5,-4,90,78,54,0.00,40.00,7,3,0,0.00
2014-2-4,23,15,4,15,8,1,89,74,49,0.00,40.00,8,4,0,0.00
2014-2-5,23,19,14,20,14,8,92,83,64,0.00,40.00,12,9,0,0.00
2014-2-6,15,10,0,12,5,-6,89,81,73,0.00,40.00,13,7,0,0.00
2014-2-7,10,4,-1,-1,-3,-6,85,72,56,0.00,40.00,14,8,0,0.00
2014-2-8,15,9,3,10,3,-5,89,74,57,0.00,40.00,7,6,0,0.00
2014-2-9,18,14,11,13,11,8,90,86,74,0.00,40.00,12,6,0,0.00
2014-2-10,14,12,8,10,7,4,90,80,69,0.00,40.00,11,7,0,0.00
2014-2-11,17,8,-1,4,1,-5,88,74,50,0.00,40.00,7,3,0,0.00
2014-2-12,22,9,-3,7,1,-6,87,70,45,0.00,40.00,11,7,0,0.00
2014-2-13,27,20,9,18,8,3,78,61,41,0.00,40.00,12,9,0,0.00
2014-2-14,23,21,18,21,17,14,90,84,76,0.00,40.00,11,9,0,0.00
2014-2-15,24,18,11,14,9,-100,91,71,59,0.00,40.00,8,4,0,0.01
2014-2-16,27,19,15,18,14,9,89,78,64,0.00,40.00,10,6,0,0.00
2014-2-17,19,15,11,16,11,7,92,83,70,0.00,40.00,19,12,0,0.00
2014-2-18,43,31,20,27,23,18,93,70,49,0.00,40.00,17,11,0,0.01
2014-2-19,41,36,31,30,28,26,91,71,54,0.00,40.00,11,7,0,0.00
2014-2-20,48,36,30,47,32,26,96,88,72,0.00,40.00,20,13,0,0.02
2014-2-21,38,33,29,32,22,9,80,65,39,0.00,40.00,21,15,0,0.00
2014-2-22,34,28,23,20,11,-100,60,51,39,0.00,40.00,14,9,0,0.00
2014-2-23,27,21,18,15,12,10,81,68,60,0.00,40.00,14,9,0,0.00
2014-2-24,21,18,16,11,10,8,77,69,57,0.00,40.00,15,12,0,0.00
2014-2-25,19,17,14,14,11,5,91,76,61,0.00,40.00,14,8,0,0.00
2014-2-26,12,9,5,7,1,-6,87,70,45,0.00,40.00,14,11,0,0.00
2014-2-27,15,8,-6,13,2,-10,91,78,62,0.00,40.00,16,10,0,0.01
2014-2-28,20,6,-9,8,-4,-13,83,63,45,0.00,40.00,14,10,0,0.00
2014-3-1,27,21,13,21,12,-100,90,70,54,0.00,40.00,10,7,0,0.00
2014-3-2,19,12,4,14,8,-2,89,81,61,0.00,40.00,10,5,0,0.00
2014-3-3,15,5,-2,-4,-7,-10,80,58,31,0.00,40.00,8,4,0,0.00
2014-3-4,20,12,2,8,0,-5,69,57,41,0.00,40.00,7,4,0,0.00
2014-3-5,24,18,14,14,10,6,88,71,56,0.00,40.00,9,6,0,0.00
2014-3-6,28,18,9,12,8,5,81,65,48,0.00,40.00,12,8,0,0.00
2014-3-7,43,30,15,26,17,10,84,61,33,0.00,40.00,12,8,0,0.00
2014-3-8,37,30,20,31,22,-100,91,77,63,0.00,40.00,9,6,0,0.00
2014-3-9,36,31,18,29,22,16,91,69,52,0.00,40.00,12,8,0,0.01
2014-3-10,49,42,37,36,32,30,76,67,52,0.00,40.00,11,8,0,0.00
2014-3-11,50,42,37,36,34,30,90,75,47,0.00,40.00,7,4,0,0.00
2014-3-12,37,26,13,34,22,8,96,84,64,0.00,40.00,12,5,0,0.01
2014-3-13,26,14,-2,20,7,-5,88,74,56,0.00,40.00,12,5,0,0.00
2014-3-14,48,40,29,32,28,22,76,63,46,0.00,40.00,17,13,0,0.01
2014-3-15,37,33,28,30,21,-100,77,65,54,0.00,40.00,12,10,0,0.00
2014-3-16,27,19,11,12,5,0,67,54,47,0.00,40.00,12,10,0,0.00
2014-3-17,31,18,8,16,7,-3,73,60,46,0.00,40.00,10,7,0,0.00
2014-3-18,42,33,21,32,24,16,85,72,61,0.00,40.00,14,11,0,0.00
2014-3-19,43,38,33,41,35,31,94,90,77,0.00,40.00,14,10,0,0.01
2014-3-20,38,33,28,27,21,-100,81,66,51,0.00,40.00,14,10,0,0.00
2014-3-21,44,35,27,39,28,21,87,76,66,0.00,40.00,15,9,0,0.01
2014-3-22,42,34,26,40,26,-100,92,77,67,0.00,40.00,14,10,0,0.01
2014-3-23,26,21,16,17,9,7,70,58,49,0.00,40.00,13,7,0,0.00
2014-3-24,28,21,14,15,10,5,85,62,38,0.00,40.00,12,6,0,0.00
2014-3-25,27,22,16,21,13,7,93,67,48,0.00,40.00,16,9,0,0.00
2014-3-26,33,22,10,16,12,8,90,67,45,0.00,40.00,9,5,0,0.00
2014-3-27,42,36,32,38,26,14,86,68,42,0.00,40.00,15,12,0,0.01
2014-3-28,50,38,29,45,34,25,94,85,74,0.00,40.00,16,12,0,0.00
2014-3-29,38,33,30,30,26,-100,93,80,61,0.00,40.00,12,6,0,0.00
2014-3-30,53,37,22,27,22,17,92,59,31,0.00,40.00,6,2,0,0.00
2014-3-31,62,49,37,35,30,27,73,52,27,0.00,40.00,19,12,0,0.00
2014-4-1,55,44,38,43,30,-100,81,60,43,0.00,40.00,19,13,0,0.00
2014-4-2,56,43,31,28,26,23,79,53,27,0.00,40.00,8,5,0,0.00
2014-4-3,46,38,32,36,30,24,93,74,48,0.00,40.00,19,13,0,0.01
2014-4-4,45,38,34,44,35,29,96,91,80,0.00,40.00,18,14,0,0.01
2014-4-5,44,35,30,29,20,-100,84,61,31,0.00,40.00,17,10,0,0.01
2014-4-6,52,42,31,26,20,17,63,42,28,0.00,40.00,8,6,0,0.00
2014-4-7,52,43,37,39,29,23,87,59,32,0.00,40.00,11,6,0,0.00
2014-4-8,53,42,33,37,33,31,89,71,49,0.00,40.00,13,6,0,0.00
2014-4-9,57,46,31,33,29,22,87,55,31,0.00,40.00,11,5,0,0.00
2014-4-10,62,54,46,42,36,30,70,50,39,0.00,40.00,16,10,0,0.00
2014-4-11,65,53,38,36,24,17,84,40,16,0.00,40.00,10,5,0,0.00
2014-4-12,74,63,49,51,35,-100,49,39,25,0.00,40.00,14,9,0,0.00
2014-4-13,68,64,56,59,53,48,89,69,53,0.00,40.00,13,8,0,0.00
2014-4-14,64,44,27,57,39,25,94,83,77,0.00,40.00,18,13,0,0.01
2014-4-15,32,26,22,25,16,8,95,67,37,0.00,40.00,16,9,0,0.00
2014-4-16,45,34,22,25,17,14,72,51,34,0.00,40.00,15,11,0,0.00
2014-4-17,63,47,34,36,29,24,72,50,29,0.00,40.00,16,11,0,0.01
2014-4-18,55,46,38,42,37,25,91,72,47,0.00,40.00,12,5,0,0.00
2014-4-19,61,46,34,34,27,-100,82,53,28,0.00,40.00,12,8,0,0.00
2014-4-20,72,56,40,32,29,27,63,38,19,0.00,40.00,14,9,0,0.00
2014-4-21,77,64,57,55,40,29,94,44,26,0.00,40.00,11,7,0,0.00
2014-4-22,58,47,40,56,37,26,95,68,46,0.00,40.00,19,12,0,0.01
2014-4-23,56,42,29,29,26,24,81,57,29,0.00,40.00,9,5,0,0.00
2014-4-24,56,50,44,32,27,20,58,42,24,0.00,40.00,19,12,0,0.00
2014-4-25,60,48,41,42,38,27,93,68,46,0.00,40.00,16,8,0,0.33
2014-4-26,54,48,41,38,32,-100,76,58,44,0.00,40.00,11,5,0,0.00
2014-4-27,58,47,39,34,31,27,75,54,35,0.00,40.00,17,13,0,0.00
2014-4-28,55,48,46,40,35,29,75,60,51,0.00,40.00,21,18,0,0.03
2014-4-29,72,57,47,54,45,39,95,69,30,0.00,40.00,18,10,0,0.06
2014-4-30,58,52,44,47,45,41,93,76,57,0.00,40.00,10,8,0,0.05
2014-5-1,46,44,41,42,39,35,93,84,77,0.00,40.00,10,8,0,0.17
2014-5-2,50,46,44,44,42,41,95,87,72,0.00,40.00,10,7,0,0.02
2014-5-3,59,49,46,44,38,-100,88,69,39,0.00,40.00,20,10,0,0.02
2014-5-4,53,48,43,37,30,23,76,51,33,0.00,40.00,17,9,0,0.00
2014-5-5,58,49,41,36,33,29,65,56,40,0.00,40.00,10,6,0,0.00
2014-5-6,65,52,41,38,36,33,80,56,35,0.00,40.00,14,8,0,0.00
2014-5-13,57,54,52,53,50,49,90,88,86,0.00,40.00,11,8,0,0.00
2014-5-14,56,52,49,48,46,43,95,82,61,0.00,40.00,7,4,0,0.50
2014-5-15,49,43,38,48,40,33,95,88,69,0.00,40.00,16,11,0,0.14
2014-5-16,46,38,32,38,33,30,95,84,68,0.00,40.00,8,3,0,0.00
2014-5-17,55,44,33,37,29,-100,93,64,29,0.00,40.00,12,5,0,0.00
2014-5-18,65,55,44,37,33,30,63,45,29,0.00,40.00,9,6,0,0.00
2014-5-19,68,58,47,42,34,-100,66,43,29,0.00,40.00,13,8,0,0.02
2014-5-20,80,67,57,61,50,-100,65,57,50,0.00,40.00,15,9,0,0.00
2014-5-21,82,73,63,65,57,44,92,63,26,0.00,40.00,10,6,0,0.00
2014-5-22,66,60,51,52,44,-100,90,60,46,0.00,40.00,13,7,0,0.00
2014-5-23,64,55,43,46,44,42,96,70,49,0.00,40.00,11,6,0,0.00
2014-5-24,75,58,43,50,42,-100,94,64,31,0.00,40.00,8,2,0,0.00
2014-5-25,80,67,53,51,47,44,80,51,29,0.00,40.00,7,5,0,0.00
2014-5-26,83,73,59,63,55,50,80,55,41,0.00,40.00,11,6,0,0.51
2014-5-27,79,72,66,68,65,63,94,80,61,0.00,40.00,9,6,0,0.10
2014-5-28,74,67,61,64,62,58,96,84,70,0.00,40.00,7,4,0,0.00
2014-5-29,78,67,56,57,54,49,89,64,36,0.00,40.00,6,5,0,0.00
2014-5-30,82,69,57,54,52,49,86,58,32,0.00,40.00,6,4,0,0.00
2014-5-31,85,71,57,55,49,-100,86,51,30,0.00,40.00,7,4,0,0.00
2014-6-1,85,74,60,53,49,45,57,43,30,0.00,40.00,10,9,0,0.00
2014-6-2,78,74,68,68,65,61,92,74,56,0.00,40.00,13,8,0,0.84
2014-6-3,72,69,57,67,56,46,88,65,40,0.00,40.00,15,8,0,0.00
2014-6-4,65,60,57,58,54,51,92,82,70,0.00,40.00,8,5,0,0.31
2014-6-5,74,60,48,53,47,42,95,66,33,0.00,40.00,8,2,0,0.00
2014-6-6,80,65,48,50,44,38,91,53,22,0.00,40.00,7,3,0,0.00
2014-6-7,81,68,56,58,47,-100,74,50,33,0.00,40.00,8,5,0,0.00
2014-6-8,74,67,59,60,58,54,95,73,55,0.00,40.00,8,5,0,0.33
2014-6-9,78,68,56,58,56,53,93,66,44,0.00,40.00,7,4,0,0.00
2014-6-10,74,66,61,61,57,54,86,72,54,0.00,40.00,10,6,0,0.04
2014-6-11,76,67,62,65,63,60,94,87,64,0.00,40.00,9,7,0,0.50
2014-6-12,77,65,57,62,60,56,96,84,60,0.00,40.00,10,5,0,0.00
2014-6-13,64,59,50,57,47,41,85,66,42,0.00,40.00,11,6,0,0.00
2014-6-14,76,60,44,47,42,-100,93,58,31,0.00,40.00,6,3,0,0.00
2014-6-15,80,68,56,62,52,46,74,58,42,0.00,40.00,14,8,0,0.00
2014-6-16,84,76,69,65,62,58,81,64,43,0.00,40.00,7,5,0,0.00
2014-6-17,84,77,71,68,65,60,82,67,48,0.00,40.00,14,8,0,0.00
2014-6-18,78,72,67,69,66,63,94,83,74,0.00,40.00,9,5,0,0.76
2014-6-19,76,69,65,66,64,63,95,85,70,0.00,40.00,9,5,0,0.00
2014-6-20,73,68,63,67,62,58,91,83,78,0.00,40.00,11,7,0,0.00
2014-6-21,79,66,59,67,59,-100,95,80,60,0.00,40.00,5,3,0,0.16
2014-6-22,82,73,63,67,64,61,95,77,54,0.00,40.00,6,3,0,0.01
2014-6-23,79,68,65,70,65,60,93,88,75,0.00,40.00,8,5,0,0.73
2014-6-24,77,72,68,69,68,66,94,87,74,0.00,40.00,6,3,0,0.48
2014-6-25,78,69,63,68,65,62,95,87,66,0.00,40.00,7,3,0,0.00
2014-6-26,80,69,63,66,63,62,95,83,56,0.00,40.00,4,2,0,0.00
2014-6-27,84,72,61,66,64,59,95,76,50,0.00,40.00,8,4,0,0.00
2014-6-28,80,72,68,70,63,-100,86,75,68,0.00,40.00,10,7,0,0.00
2014-6-29,84,78,72,70,68,65,88,72,53,0.00,40.00,9,7,0,0.00
2014-6-30,84,76,69,71,69,65,91,78,61,0.00,40.00,10,7,0,0.20
2014-7-1,80,71,63,65,62,57,95,75,44,0.00,40.00,13,8,0,0.09
2014-7-2,70,66,57,62,57,49,87,72,56,0.00,40.00,11,8,0,0.00
2014-7-3,69,60,52,54,49,44,95,70,41,0.00,40.00,10,6,0,0.30
2014-7-4,77,64,51,53,48,43,91,60,31,0.00,40.00,6,3,0,0.00
2014-7-5,74,64,53,59,48,-100,89,62,44,0.00,40.00,8,6,0,0.00
2014-7-6,77,71,61,70,62,55,83,74,66,0.00,40.00,9,6,0,0.00
2014-7-7,80,74,65,70,67,62,93,81,54,0.00,40.00,11,7,0,0.22
2014-7-8,76,70,65,68,63,59,94,78,58,0.00,40.00,13,7,0,0.18
2014-7-9,73,67,59,59,56,54,89,68,53,0.00,40.00,9,6,0,0.00
2014-7-10,76,65,53,56,53,51,94,67,41,0.00,40.00,5,2,0,0.00
2014-7-11,78,68,54,64,56,51,93,68,46,0.00,40.00,6,4,0,0.00
2014-7-12,77,67,63,68,62,59,92,81,63,0.00,40.00,8,6,0,0.00
2014-7-13,79,73,67,70,65,59,94,75,50,0.00,40.00,12,8,0,0.10
2014-7-14,73,67,60,64,61,57,95,80,60,0.00,40.00,5,2,0,0.03
2014-7-15,64,59,55,57,53,51,92,80,64,0.00,40.00,12,6,0,0.01
2014-7-16,68,59,52,53,51,50,94,77,57,0.00,40.00,8,4,0,0.00
2014-7-17,74,62,50,54,50,48,91,67,41,0.00,40.00,5,2,0,0.00
2014-7-18,75,65,52,57,52,48,89,64,41,0.00,40.00,6,5,0,0.00
2014-7-19,79,67,54,58,54,51,92,65,44,0.00,40.00,5,3,0,0.00
2014-7-20,81,69,58,61,58,55,92,70,44,0.00,40.00,5,3,0,0.00
2014-7-21,84,74,62,66,61,57,92,67,44,0.00,40.00,6,4,0,0.00
2014-7-22,86,77,66,68,65,62,87,68,51,0.00,40.00,10,7,0,0.00
2014-7-23,77,68,59,69,61,56,93,77,55,0.00,40.00,9,6,0,0.22
2014-7-24,74,64,53,55,52,49,94,67,40,0.00,40.00,7,3,0,0.00
2014-7-25,73,62,52,60,53,48,89,73,46,0.00,40.00,8,5,0,0.00
2014-7-26,76,66,60,66,60,57,88,78,67,0.00,40.00,6,4,0,0.00
2014-7-27,81,71,64,70,65,56,95,82,52,0.00,40.00,11,6,0,0.00
2014-7-28,65,60,51,59,54,48,93,80,66,0.00,40.00,10,7,0,0.00
2014-7-29,72,62,47,57,53,44,93,73,54,0.00,40.00,10,5,0,0.00
2014-7-30,73,64,56,58,56,54,95,76,57,0.00,40.00,9,4,0,0.00
2014-7-31,78,68,51,59,56,50,94,66,48,0.00,40.00,11,6,0,0.00
2014-8-1,79,72,63,63,60,57,87,67,47,0.00,40.00,6,4,0,0.00
2014-8-2,82,67,58,61,56,54,94,68,41,0.00,40.00,8,3,0,0.00
2014-8-3,83,70,51,62,57,50,94,67,39,0.00,40.00,8,3,0,0.00
2014-8-4,82,72,63,66,62,60,90,72,49,0.00,40.00,8,4,0,0.06
2014-8-5,76,69,64,66,64,61,92,84,67,0.00,40.00,8,3,0,0.15
2014-8-6,80,70,60,66,58,53,96,70,39,0.00,40.00,6,3,0,0.00
2014-8-7,80,75,66,59,55,53,78,52,38,0.00,40.00,6,4,0,0.00
2014-8-8,80,70,58,59,56,55,91,65,42,0.00,40.00,9,6,0,0.00
2014-8-9,78,67,61,59,54,48,86,64,35,0.00,40.00,9,6,0,0.00
2014-8-10,83,72,61,65,60,55,86,67,49,0.00,40.00,8,6,0,0.00
2014-8-11,78,71,68,69,65,61,91,81,63,0.00,40.00,8,4,0,0.07
2014-8-12,66,62,56,65,59,53,94,91,81,0.00,40.00,12,6,0,0.01
2014-8-13,75,64,51,59,53,49,95,71,42,0.00,40.00,10,5,0,0.00
2014-8-14,69,59,51,52,46,41,91,64,37,0.00,40.00,10,4,0,0.00
2014-8-15,73,59,42,51,45,40,95,64,30,0.00,40.00,9,4,0,0.00
2014-8-16,79,65,55,64,54,48,77,66,56,0.00,40.00,10,6,0,0.00
2014-8-17,77,71,66,68,66,64,93,82,69,0.00,40.00,7,3,0,0.00
2014-8-18,80,70,63,67,63,59,91,79,61,0.00,40.00,5,3,0,0.00
2014-8-19,81,71,65,69,66,63,94,84,63,0.00,40.00,11,6,0,0.16
2014-8-20,81,73,65,67,64,62,95,76,53,0.00,40.00,11,4,0,0.00
2014-8-21,79,73,68,71,68,65,92,83,70,0.00,40.00,6,3,0,0.09
2014-8-22,83,74,68,72,70,67,95,85,68,0.00,40.00,5,3,0,0.00
2014-8-23,82,73,70,70,67,66,94,79,67,0.00,40.00,7,5,0,0.00
2014-8-24,81,74,66,69,66,63,90,77,67,0.00,40.00,9,6,0,0.00
2014-8-25,88,74,68,73,68,66,91,83,58,0.00,40.00,8,5,0,0.02
2014-8-26,77,71,67,70,66,64,93,86,78,0.00,40.00,9,3,0,0.94
2014-8-27,78,66,59,64,59,57,95,80,48,0.00,40.00,7,2,0,0.00
2014-8-28,75,65,53,59,56,51,92,74,52,0.00,40.00,7,4,0,0.00
2014-8-29,75,68,63,71,62,55,88,79,70,0.00,40.00,12,8,0,0.14
2014-8-30,79,71,68,69,66,66,94,81,70,0.00,40.00,10,8,0,1.03
2014-8-31,80,72,66,69,67,64,94,84,65,0.00,40.00,7,4,0,0.00
2014-9-1,80,73,68,70,68,64,93,83,63,0.00,40.00,11,7,0,0.23
2014-9-2,77,71,62,65,62,58,93,76,51,0.00,40.00,8,3,0,0.00
2014-9-3,80,70,61,65,59,57,93,72,45,0.00,40.00,6,3,0,0.00
2014-9-4,81,72,65,69,64,59,91,76,63,0.00,40.00,9,6,0,0.04
2014-9-5,86,76,65,73,69,63,93,78,64,0.00,40.00,12,6,0,0.44
2014-9-6,70,63,55,62,56,50,93,78,53,0.00,40.00,8,4,0,0.00
2014-9-7,75,62,50,57,52,49,93,72,42,0.00,40.00,4,2,0,0.00
2014-9-8,75,64,54,57,53,49,89,69,42,0.00,40.00,7,4,0,0.00
2014-9-9,76,67,59,61,57,55,89,72,49,0.00,40.00,9,6,0,0.00
2014-9-10,76,68,61,70,64,59,94,86,80,0.00,40.00,14,10,0,0.68
2014-9-11,58,53,51,56,50,48,94,91,84,0.00,40.00,11,7,0,0.03
2014-9-12,55,51,48,49,47,46,94,86,71,0.00,40.00,7,4,0,0.02
2014-9-13,57,50,46,48,45,43,96,82,61,0.00,40.00,8,4,0,0.19
2014-9-14,62,52,44,46,43,41,93,74,47,0.00,40.00,8,3,0,0.00
2014-9-15,60,52,46,52,48,44,94,84,67,0.00,40.00,6,4,0,0.00
2014-9-16,65,53,43,51,46,42,96,80,54,0.00,40.00,8,2,0,0.00
2014-9-17,65,52,41,46,43,40,96,75,48,0.00,40.00,7,4,0,0.00
2014-9-18,69,55,42,52,46,41,95,76,50,0.00,40.00,6,2,0,0.00
2014-9-19,69,58,48,53,50,47,95,76,49,0.00,40.00,12,9,0,0.00
2014-9-20,77,65,58,65,56,47,92,72,62,0.00,40.00,11,7,0,0.03
2014-9-21,67,58,48,65,54,42,94,84,74,0.00,40.00,15,10,0,0.06
2014-9-22,62,51,38,45,42,36,91,72,51,0.00,40.00,8,5,0,0.00
2014-9-23,71,55,44,52,46,42,94,73,49,0.00,40.00,6,4,0,0.00
2014-9-24,72,59,50,54,50,47,90,72,45,0.00,40.00,7,5,0,0.00
2014-9-25,77,63,54,58,52,47,88,70,35,0.00,40.00,7,4,0,0.00
2014-9-26,77,64,53,57,52,49,93,67,36,0.00,40.00,8,5,0,0.00
2014-9-27,76,63,54,57,53,50,90,69,45,0.00,40.00,7,5,0,0.00
2014-9-28,78,64,55,57,54,52,91,72,43,0.00,40.00,6,3,0,0.00
2014-9-29,77,63,49,57,54,48,95,75,48,0.00,40.00,7,3,0,0.00
2014-9-30,57,51,46,55,48,45,95,88,76,0.00,40.00,7,3,0,0.15
2014-10-1,65,56,49,50,48,46,92,78,59,0.00,40.00,10,4,0,0.00
2014-10-2,70,62,56,63,56,49,93,80,72,0.00,40.00,11,8,0,0.38
2014-10-3,65,57,46,64,54,42,95,89,74,0.00,40.00,14,9,0,1.35
2014-10-4,44,41,38,42,37,33,94,86,73,0.00,40.00,11,8,0,0.57
2014-10-5,54,45,39,40,37,31,93,74,42,0.00,40.00,11,6,0,0.04
2014-10-6,58,50,46,50,43,37,91,74,57,0.00,40.00,11,6,0,0.25
2014-10-7,62,52,44,51,44,37,87,74,61,0.00,40.00,11,6,0,0.00
2014-10-8,59,53,46,48,38,31,85,60,36,0.00,40.00,17,8,0,0.00
2014-10-9,56,48,39,42,37,32,92,69,39,0.00,40.00,10,3,0,0.00
2014-10-10,57,45,34,40,36,32,93,74,45,0.00,40.00,5,1,0,0.00
2014-10-11,59,46,38,39,34,31,86,63,35,0.00,40.00,6,2,0,0.00
2014-10-12,61,49,36,40,34,32,85,60,33,0.00,40.00,12,8,0,0.00
2014-10-13,70,60,49,63,56,42,96,86,67,0.00,40.00,13,8,0,0.30
2014-10-14,69,63,56,62,59,54,94,86,75,0.00,40.00,14,8,0,0.38
2014-10-15,58,55,52,53,52,50,94,89,79,0.00,40.00,6,3,0,0.00
2014-10-16,58,53,49,54,50,48,96,91,81,0.00,40.00,8,3,0,0.00
2014-10-17,58,54,51,50,49,48,91,84,71,0.00,40.00,12,9,0,0.07
2014-10-18,47,43,37,44,39,33,94,84,74,0.00,40.00,9,7,0,0.05
2014-10-19,52,40,28,39,33,26,95,78,54,0.00,40.00,8,4,0,0.01
2014-10-20,56,50,47,49,45,41,90,81,74,0.00,40.00,9,6,0,0.03
2014-10-21,48,44,34,44,40,32,92,83,67,0.00,40.00,7,4,0,0.00
2014-10-22,52,40,30,38,34,28,93,80,53,0.00,40.00,5,3,0,0.00
2014-10-23,58,44,34,42,37,33,96,80,47,0.00,40.00,6,3,0,0.00
2014-10-24,63,53,47,48,45,40,93,75,57,0.00,40.00,7,4,0,0.00
2014-10-25,65,57,51,53,43,32,91,64,29,0.00,40.00,15,8,0,0.00
2014-10-26,58,50,38,37,34,32,85,57,37,0.00,40.00,9,4,0,0.00
2014-10-27,73,60,39,58,44,34,88,57,47,0.00,40.00,14,10,0,0.00
2014-10-28,69,58,50,56,47,35,91,67,43,0.00,40.00,15,11,0,0.14
2014-10-29,48,44,42,39,36,34,89,72,58,0.00,40.00,11,6,0,0.03
2014-10-30,48,44,42,39,36,33,88,74,55,0.00,40.00,7,2,0,0.00
2014-10-31,45,38,32,39,33,22,93,80,67,0.00,40.00,14,9,0,0.15
2014-11-1,41,31,24,21,18,16,79,61,35,0.00,40.00,9,6,0,0.00
2014-11-2,50,42,27,32,25,21,78,51,35,0.00,40.00,7,5,0,0.00
2014-11-3,59,51,43,39,29,21,52,42,31,0.00,40.00,10,8,0,0.00
2014-11-4,58,52,43,49,40,29,94,69,32,0.00,40.00,14,10,0,0.02
2014-11-5,55,47,38,39,37,35,90,69,47,0.00,40.00,10,6,0,0.00
2014-11-6,50,43,36,43,36,28,92,77,52,0.00,40.00,14,9,0,0.05
2014-11-7,39,36,34,33,31,27,88,79,72,0.00,40.00,7,2,0,0.00
2014-11-8,42,40,38,38,32,28,91,72,64,0.00,40.00,11,8,0,0.02
2014-11-9,43,39,35,32,28,27,75,64,53,0.00,40.00,12,6,0,0.00
2014-11-10,56,48,41,39,36,32,78,62,48,0.00,40.00,14,9,0,0.00
2014-11-11,53,45,34,43,37,28,92,73,54,0.00,40.00,13,11,0,0.07
2014-11-12,34,30,28,26,22,20,75,70,67,0.00,40.00,13,9,0,0.00
2014-11-13,28,26,23,24,22,19,95,85,67,0.00,40.00,11,5,0,0.00
2014-11-14,27,25,23,26,24,22,95,94,94,0.00,40.00,8,4,0,0.00
2014-11-15,29,26,21,16,15,14,76,62,54,0.00,40.00,6,4,0,0.02
2014-11-16,29,28,25,25,21,16,86,77,63,0.00,40.00,7,6,0,0.00
2014-11-17,29,21,14,25,17,12,91,85,73,0.00,40.00,13,10,0,0.00
2014-11-18,15,14,13,13,12,11,91,91,90,0.00,40.00,9,7,0,0.00
2014-11-19,27,20,13,23,16,11,91,84,70,0.00,40.00,15,9,0,0.00
2014-11-20,24,23,21,16,12,8,72,62,52,0.00,40.00,18,13,0,0.00
2014-11-21,27,22,10,15,12,7,86,66,50,0.00,40.00,11,6,0,0.00
2014-11-22,47,37,25,44,32,12,94,82,51,0.00,40.00,12,9,0,0.12
2014-11-23,51,48,46,48,45,42,95,87,80,0.00,40.00,12,9,0,0.93
2014-11-24,50,40,29,49,37,25,95,89,80,0.00,40.00,18,12,0,0.35
2014-11-25,28,27,25,24,22,20,88,81,75,0.00,40.00,14,9,0,0.00
2014-11-26,27,26,24,21,19,18,82,76,74,0.00,40.00,8,3,0,0.00
2014-11-27,29,25,19,28,22,17,95,91,82,0.00,40.00,11,4,0,0.00
2014-11-28,29,21,18,21,17,16,93,84,72,0.00,40.00,12,6,0,0.00
2014-11-29,51,38,29,46,31,22,85,75,65,0.00,40.00,14,12,0,0.00
2014-11-30,55,48,35,50,44,34,95,88,81,0.00,40.00,12,10,0,0.00
2014-12-1,33,23,15,30,15,9,86,69,58,0.00,40.00,13,9,0,0.00
2014-12-2,34,24,16,27,18,10,90,77,60,0.00,40.00,13,7,0,0.00
2014-12-3,35,30,27,28,23,18,93,74,56,0.00,40.00,16,9,0,0.00
2014-12-4,30,27,23,21,18,15,78,67,58,0.00,40.00,9,5,0,0.00
2014-12-5,36,32,30,29,26,21,88,79,69,0.00,40.00,8,4,0,0.00
2014-12-6,41,34,29,31,26,18,89,73,49,0.00,40.00,10,5,0,0.00
2014-12-7,34,28,23,25,18,13,79,65,52,0.00,40.00,14,8,0,0.00
2014-12-8,37,33,30,32,28,23,95,82,72,0.00,40.00,13,8,0,0.09
2014-12-9,37,34,32,34,31,27,96,90,80,0.00,40.00,8,5,0,0.00
2014-12-10,34,28,24,26,23,21,89,76,62,0.00,40.00,7,5,0,0.00
2014-12-11,32,26,21,25,22,18,93,83,71,0.00,40.00,11,6,0,0.00
2014-12-12,34,31,27,33,29,24,96,93,88,0.00,40.00,10,8,0,0.00
2014-12-13,44,38,34,42,37,32,96,94,90,0.00,40.00,11,8,0,0.00
2014-12-14,52,46,45,45,42,42,91,84,76,0.00,40.00,6,5,0,0.00
2014-12-15,50,45,42,43,41,39,96,86,68,0.00,40.00,14,9,0,0.02
2014-12-16,43,40,33,42,39,31,96,95,93,0.00,40.00,14,9,0,0.06
2014-12-17,32,28,26,30,22,19,92,78,72,0.00,40.00,14,12,0,0.00
2014-12-18,28,27,26,23,23,21,87,83,77,0.00,40.00,9,6,0,0.00
2014-12-19,34,26,22,25,20,13,94,83,45,0.00,40.00,6,2,0,0.00
2014-12-20,29,23,18,27,20,15,94,91,86,0.00,40.00,5,4,0,0.00
2014-12-21,34,30,28,27,26,24,93,84,72,0.00,40.00,11,7,0,0.00
2014-12-22,36,30,25,33,26,22,92,85,77,0.00,40.00,13,11,0,0.08
2014-12-23,51,44,36,46,38,34,96,82,57,0.00,40.00,14,8,0,0.07
2014-12-24,42,37,32,38,35,31,96,93,82,0.00,40.00,10,6,0,0.41
2014-12-25,36,35,34,34,30,28,93,82,73,0.00,40.00,12,9,0,0.00
2014-12-26,47,40,34,40,34,30,87,80,64,0.00,40.00,9,7,0,0.00
2014-12-27,46,42,34,45,39,29,95,89,80,0.00,40.00,13,10,0,0.00
2014-12-28,34,30,26,29,24,19,86,75,66,0.00,40.00,10,6,0,0.00
2014-12-29,33,28,24,23,18,8,85,66,36,0.00,40.00,7,4,0,0.00
2014-12-30,21,18,17,16,12,10,80,76,71,0.00,40.00,8,2,0,0.00